Wetbulb
52.27 52.58 53.29 54.23 54.80 55.27 55.61 56.06 56.14 56.20 56.36 56.37 56.71 57.32 57.79 58.59 58.62 52.62 45.78 50.82 55.37 59.71 59.42 52.56 51.03 49.59 47.94 46.16 46.96 43.06 35.50 32.35 34.30 35.66 36.80 40.33 39.92 42.41 43.82 39.84 42.02 43.92 42.15 43.46 45.79
53.15 52.68 52.63 53.17 53.86 54.56 55.29 55.76 55.92 55.94 56.07 56.30 56.35 56.90 57.57 58.07 53.52 48.53 53.95 57.84 58.60 60.00 51.22 48.68 47.61 48.52 43.87 43.56 43.43 39.28 33.82 36.14 38.92 38.57 38.13 40.44 39.60 41.03 39.54 39.73 40.05 41.67 43.35 44.94 44.57
53.95 53.62 53.43 52.92 52.85 53.60 54.41 55.24 55.61 55.82 55.82 56.02 56.17 56.71 57.35 56.86 48.53 47.26 57.00 58.21 60.04 58.78 51.98 49.71 49.37 47.71 42.62 42.73 41.20 39.27 36.25 39.31 41.39 42.11 42.36 41.31 40.14 42.23 39.47 38.18 39.78 39.93 40.91 42.64 42.05
54.77 54.08 53.75 53.76 53.83 53.33 53.76 54.77 55.21 55.47 55.60 55.77 56.05 56.51 57.84 52.74 41.14 49.58 57.86 59.34 60.26 55.94 51.44 48.17 47.56 43.34 40.83 39.36 41.74 37.39 40.85 42.06 43.52 43.48 42.63 40.50 41.06 39.52 40.82 40.15 43.39 42.73 42.71 41.16 40.53
56.09 55.29 53.97 53.94 54.14 54.10 53.90 54.51 54.84 54.88 55.14 55.48 55.92 56.76 53.15 45.01 45.41 51.72 57.13 56.23 53.64 51.87 48.46 47.28 44.41 42.94 39.87 40.42 41.09 37.88 39.77 42.76 43.38 42.93 41.63 43.06 40.33 39.90 40.02 41.93 43.16 43.67 42.98 40.77 40.14
56.45 55.89 55.28 54.53 54.22 54.37 54.25 54.41 54.85 54.95 54.93 55.19 55.73 56.34 50.37 40.14 51.08 51.94 51.90 52.85 51.95 50.77 48.65 48.20 45.69 46.09 42.35 41.58 40.37 40.64 41.32 41.74 42.91 42.45 42.34 40.72 39.31 39.62 39.54 41.93 41.95 42.80 40.60 40.28 40.87
57.03 56.39 55.80 55.47 54.62 54.46 54.50 54.51 54.85 54.89 54.85 55.25 55.38 53.02 47.05 43.13 50.13 50.14 51.59 50.69 51.48 50.72 47.40 49.11 48.75 45.43 43.79 40.19 43.68 41.75 37.69 39.34 40.77 41.52 40.55 39.86 36.01 37.41 39.60 41.18 41.14 40.95 39.44 40.37 40.81
57.30 56.46 55.90 55.72 55.26 54.79 54.70 54.74 54.82 54.92 54.81 54.62 54.85 49.62 41.70 50.75 48.80 50.26 50.97 49.79 51.93 52.30 50.42 50.13 49.13 46.24 44.32 43.50 41.64 37.76 36.38 32.12 38.70 40.79 40.63 36.99 31.74 37.27 40.72 39.66 39.63 39.82 38.71 39.54 40.51
57.09 56.40 56.14 55.82 55.43 55.20 54.84 54.88 55.20 54.81 54.77 54.31 48.87 45.23 39.43 52.27 47.34 49.39 49.28 48.37 49.62 50.86 49.94 51.19 47.80 42.58 42.31 36.92 33.18 34.38 28.53 31.51 35.85 40.96 39.23 37.01 32.01 37.39 40.27 39.16 38.69 38.67 38.30 39.03 39.43
57.10 56.52 56.24 56.03 55.60 55.48 55.17 54.64 53.53 53.29 52.15 51.70 50.00 40.18 42.58 42.68 46.68 48.69 48.83 49.37 47.33 47.45 46.94 45.23 40.87 37.23 36.25 33.58 25.71 30.39 29.31 31.95 31.31 36.47 37.03 34.90 35.24 38.68 39.92 38.59 38.21 38.34 37.77 37.84 38.76
57.20 56.81 56.44 55.98 55.59 54.56 51.14 46.30 42.47 42.74 43.91 40.27 41.07 41.09 44.13 46.66 48.44 46.52 48.79 47.08 46.64 43.35 38.07 40.66 34.57 28.59 35.16 36.94 37.03 34.45 31.90 29.85 33.71 37.83 34.45 33.98 34.83 37.16 38.48 38.13 37.19 37.29 37.24 36.64 37.44
57.48 56.98 56.62 56.24 55.24 53.65 49.32 42.60 41.48 40.64 33.15 41.52 42.67 43.63 46.08 46.58 41.89 44.88 47.94 42.08 41.02 35.90 38.71 35.53 31.83 37.13 39.65 38.55 36.64 34.12 30.51 29.50 33.91 36.56 34.41 32.79 33.74 37.55 37.70 37.10 38.30 38.68 37.38 36.65 37.78
55.18 56.88 56.50 55.95 54.02 49.45 45.66 44.41 47.47 46.34 33.02 37.70 40.70 41.39 42.85 44.89 41.41 42.15 44.91 41.96 38.06 36.28 36.00 33.16 35.72 40.07 38.07 35.53 34.63 32.14 29.68 28.41 29.95 34.08 34.04 31.89 29.21 31.00 37.21 37.34 38.73 38.41 38.76 38.25 38.07
53.50 55.70 56.28 53.59 49.26 46.88 43.31 46.74 47.83 46.64 32.37 35.94 36.46 40.29 43.04 43.20 37.54 46.10 45.47 41.27 37.43 35.74 37.47 35.31 37.96 37.13 34.29 34.62 35.00 29.32 36.00 33.98 32.47 29.19 22.46 30.84 21.62 25.09 32.87 35.42 36.88 38.27 37.41 37.01 35.62
51.72 52.99 55.29 54.38 47.28 43.00 44.82 47.58 47.41 45.42 30.76 37.08 36.20 44.94 43.06 37.20 39.43 40.02 44.73 41.48 36.20 35.44 35.05 33.19 34.55 33.32 33.26 34.41 36.10 32.51 35.45 33.41 31.78 28.96 27.78 25.78 20.54 27.03 31.18 30.51 34.67 37.09 37.44 36.72 34.83
49.68 50.78 54.55 48.47 45.71 44.50 46.23 45.33 45.18 35.38 30.96 32.73 36.90 37.00 36.44 38.47 39.57 40.87 40.95 42.25 41.22 36.85 35.43 34.15 37.66 36.15 35.25 35.98 36.33 36.91 34.43 33.14 31.04 28.42 18.84 21.49 22.58 25.38 24.81 31.05 31.49 36.26 37.98 35.70 34.36
48.70 49.55 51.52 50.38 46.54 46.07 45.68 44.13 32.74 31.74 35.81 31.38 31.58 35.73 34.89 34.33 36.62 37.45 36.40 34.68 32.06 28.06 28.79 32.73 33.00 35.41 37.06 33.37 35.61 34.70 29.25 21.47 19.50 19.29 20.12 27.29 23.88 28.41 31.70 36.54 34.98 36.10 36.64 33.96 33.99
47.73 49.21 51.53 50.35 46.49 47.20 47.57 37.03 29.30 34.03 33.87 35.29 35.09 34.92 32.27 34.97 35.22 35.48 33.79 30.53 34.92 32.89 29.22 26.87 25.80 32.91 35.88 33.82 31.34 30.75 29.22 23.32 18.11 19.46 21.89 26.06 22.96 28.66 33.46 36.64 36.86 37.34 35.45 33.66 32.99
47.28 47.84 47.69 46.30 46.95 48.01 42.13 31.56 33.74 35.73 38.29 33.85 33.82 29.56 28.85 33.80 33.88 33.89 32.66 31.87 34.23 35.49 30.07 28.15 28.36 34.66 35.08 35.09 34.39 31.26 27.51 29.87 24.76 18.78 20.04 23.14 27.01 31.69 33.09 32.57 33.64 34.21 32.86 32.08 32.31
42.59 44.13 45.49 46.74 47.55 45.82 36.98 34.24 35.01 41.46 38.65 36.69 33.22 31.89 26.29 28.43 30.65 31.27 31.05 35.15 36.25 37.11 36.74 34.64 28.33 33.73 34.80 35.06 34.41 31.60 32.91 24.69 22.93 15.06 16.19 22.86 24.38 26.19 29.56 31.95 33.13 32.33 31.57 31.68 31.79
41.83 39.78 43.95 46.92 46.92 39.57 31.80 33.26 36.42 41.98 39.82 35.72 33.81 32.24 30.94 29.19 29.67 30.01 30.81 34.32 37.90 37.31 38.50 36.36 32.72 30.08 32.47 30.28 29.03 28.87 27.75 28.67 27.18 25.62 22.31 19.58 25.12 30.14 31.05 33.16 33.20 33.51 33.74 32.28 31.23
37.66 32.14 44.17 46.54 34.19 31.87 31.53 35.28 39.89 39.81 39.00 38.10 37.29 36.68 32.34 31.93 29.32 28.95 30.61 33.55 36.95 37.48 33.97 37.04 32.97 27.02 29.61 31.46 32.29 30.30 29.74 29.48 25.11 22.55 23.43 24.67 25.00 33.49 33.33 33.94 34.22 34.30 35.95 34.71 32.02
31.76 32.40 42.06 43.28 29.54 29.14 32.09 33.70 35.25 36.49 36.97 37.17 35.85 37.18 35.40 32.61 29.35 32.02 32.98 35.33 36.52 36.22 34.12 35.41 24.39 19.04 23.61 27.97 28.97 28.71 29.69 29.79 27.95 26.53 23.49 21.51 26.49 33.40 32.14 33.72 33.95 33.99 34.48 35.01 31.78
30.69 25.98 32.78 34.52 32.07 31.87 31.76 32.36 34.01 36.56 37.49 38.72 38.50 37.69 34.58 32.29 33.98 30.76 32.30 34.26 36.64 36.26 39.83 37.85 28.45 26.44 26.09 27.88 27.11 26.12 27.92 29.33 28.42 22.76 24.15 26.35 27.52 31.19 31.95 32.92 34.09 34.15 34.92 33.28 32.50
31.41 21.77 31.38 27.88 29.53 31.60 33.15 32.83 33.08 32.04 34.10 38.95 35.63 38.79 35.15 31.57 33.23 30.20 32.04 31.99 34.80 37.46 35.53 35.41 31.63 25.78 27.13 28.34 27.72 27.37 27.30 28.18 27.26 30.14 26.02 27.76 29.87 36.13 36.63 35.70 34.31 35.21 35.09 32.45 32.07
29.77 28.43 32.08 28.87 32.78 30.91 31.54 30.42 31.85 34.46 32.86 32.53 33.38 37.39 38.81 35.91 35.49 33.13 32.13 31.95 32.52 33.61 33.10 35.12 29.78 26.23 20.44 26.50 26.88 24.86 27.14 28.40 29.43 31.21 30.77 30.61 30.42 38.31 37.63 34.84 33.23 34.95 35.20 33.32 33.14
35.25 35.45 29.25 24.36 26.30 24.21 29.80 30.70 32.73 37.02 35.56 37.97 37.29 36.48 36.68 39.70 40.85 40.55 39.34 38.15 37.57 34.12 32.38 31.74 28.28 28.16 27.83 24.50 20.09 21.27 24.75 27.52 29.85 30.07 32.00 27.62 34.03 35.81 35.02 35.49 37.33 36.73 35.54 36.25 35.11
MSLP
1020.26 1020.11 1019.83 1019.57 1019.27 1019.03 1018.71 1018.40 1018.15 1017.96 1017.80 1017.45 1016.96 1016.45 1016.05 1015.67 1015.01 1015.00 1015.45 1015.44 1015.06 1014.57 1014.26 1014.08 1013.73 1013.66 1013.53 1013.74 1014.12 1014.87 1015.95 1015.93 1015.11 1014.80 1014.62 1014.63 1014.86 1014.92 1014.90 1015.15 1015.47 1015.84 1016.26 1016.66 1016.79
1019.98 1019.98 1019.81 1019.61 1019.45 1019.21 1018.97 1018.74 1018.55 1018.33 1018.01 1017.61 1017.13 1016.67 1016.23 1015.89 1015.56 1015.49 1015.44 1015.01 1014.71 1014.40 1014.29 1014.48 1014.50 1013.87 1013.96 1014.32 1014.74 1015.25 1015.98 1015.35 1015.13 1014.92 1014.84 1014.86 1014.98 1015.15 1015.38 1015.61 1015.96 1016.26 1016.47 1016.54 1016.63
1019.72 1019.66 1019.58 1019.49 1019.36 1019.17 1018.97 1018.72 1018.44 1018.08 1017.70 1017.28 1016.80 1016.37 1015.90 1015.62 1015.42 1015.14 1014.70 1014.35 1014.13 1014.36 1014.88 1014.79 1014.33 1014.19 1014.48 1014.51 1014.79 1015.19 1015.53 1015.31 1015.26 1015.13 1015.07 1015.17 1015.29 1015.34 1015.58 1015.84 1015.99 1016.27 1016.43 1016.50 1016.71
1019.51 1019.47 1019.40 1019.23 1019.08 1018.92 1018.75 1018.53 1018.21 1017.85 1017.47 1017.00 1016.49 1015.99 1015.39 1015.13 1015.51 1014.92 1014.61 1014.44 1014.34 1014.45 1014.62 1014.41 1014.39 1014.49 1014.63 1014.81 1014.92 1015.33 1015.32 1015.23 1015.39 1015.38 1015.43 1015.52 1015.61 1015.63 1015.65 1015.56 1015.65 1016.02 1016.16 1016.44 1016.78
1019.21 1019.21 1019.25 1019.17 1019.02 1018.80 1018.52 1018.22 1017.92 1017.66 1017.36 1016.99 1016.55 1015.98 1015.39 1015.08 1015.04 1014.67 1014.56 1014.49 1014.31 1014.30 1014.45 1014.54 1014.65 1014.76 1014.97 1015.08 1015.16 1015.29 1015.37 1015.44 1015.50 1015.56 1015.60 1015.69 1015.81 1015.93 1015.54 1015.52 1015.69 1015.84 1016.11 1016.46 1016.78
1018.87 1018.89 1018.93 1018.98 1018.90 1018.75 1018.46 1018.13 1017.79 1017.50 1017.17 1016.82 1016.43 1015.95 1015.63 1015.41 1014.83 1014.68 1014.64 1014.61 1014.68 1014.61 1014.78 1014.85 1014.99 1015.04 1015.19 1015.31 1015.37 1015.39 1015.46 1015.61 1015.62 1015.66 1015.73 1015.93 1016.03 1016.07 1015.21 1015.43 1015.76 1015.93 1016.23 1016.43 1016.62
1018.50 1018.50 1018.60 1018.61 1018.58 1018.49 1018.33 1018.12 1017.80 1017.48 1017.18 1016.79 1016.41 1016.24 1015.82 1015.33 1014.93 1014.82 1014.79 1014.88 1014.87 1014.93 1015.07 1015.16 1015.18 1015.23 1015.28 1015.50 1015.50 1015.56 1015.77 1015.77 1015.63 1015.75 1015.96 1016.12 1015.95 1015.61 1015.33 1015.62 1015.91 1016.05 1016.21 1016.35 1016.41
1018.07 1018.16 1018.23 1018.26 1018.32 1018.22 1018.06 1017.83 1017.57 1017.33 1017.10 1016.90 1016.66 1016.58 1015.89 1015.16 1015.15 1015.11 1015.01 1014.95 1014.96 1015.00 1015.12 1015.18 1015.18 1015.30 1015.57 1015.75 1015.88 1016.02 1016.15 1016.13 1015.66 1015.81 1016.07 1016.46 1015.60 1014.92 1015.21 1015.75 1016.05 1016.06 1016.25 1016.26 1016.13
1017.63 1017.73 1017.87 1018.00 1018.05 1018.00 1017.79 1017.48 1017.17 1017.01 1016.89 1016.85 1016.87 1016.58 1015.88 1015.28 1015.24 1015.06 1015.04 1015.16 1015.15 1015.18 1015.21 1015.20 1015.23 1015.81 1016.10 1016.36 1016.70 1016.67 1016.61 1016.40 1015.85 1015.83 1016.32 1016.84 1015.80 1015.08 1015.34 1015.86 1016.04 1016.08 1016.10 1016.22 1016.16
1017.17 1017.28 1017.46 1017.73 1017.82 1017.77 1017.58 1017.08 1016.60 1016.70 1016.68 1016.82 1016.63 1016.77 1015.86 1015.29 1015.15 1015.17 1015.19 1015.33 1015.44 1015.45 1015.55 1015.53 1015.92 1016.28 1016.72 1016.83 1016.98 1016.70 1016.76 1016.49 1016.34 1016.31 1016.54 1016.72 1015.49 1015.39 1015.46 1015.78 1015.76 1015.83 1015.89 1016.03 1016.16
1016.66 1016.88 1017.05 1017.29 1017.51 1017.48 1017.52 1017.14 1017.25 1017.20 1016.81 1016.14 1015.94 1015.70 1015.41 1015.48 1015.33 1015.43 1015.37 1015.44 1015.55 1015.77 1015.86 1015.88 1016.42 1016.35 1016.17 1016.20 1016.11 1016.24 1016.56 1016.75 1016.51 1016.63 1016.92 1016.52 1015.77 1014.55 1014.88 1015.10 1015.30 1015.62 1015.68 1015.79 1016.03
1015.95 1016.29 1016.60 1016.95 1017.28 1017.49 1017.71 1017.59 1016.97 1017.15 1016.47 1015.81 1015.74 1015.64 1015.33 1015.33 1015.56 1015.54 1015.45 1015.74 1015.73 1015.85 1015.97 1016.44 1016.18 1015.64 1015.66 1015.96 1016.06 1016.37 1016.86 1017.10 1016.93 1016.99 1017.30 1016.76 1015.27 1014.13 1013.91 1013.97 1014.22 1014.62 1015.22 1015.57 1015.75
1015.74 1015.68 1016.17 1016.73 1017.22 1017.61 1017.52 1017.02 1016.81 1017.06 1016.91 1015.87 1015.59 1015.57 1015.50 1015.52 1015.46 1015.38 1015.53 1015.55 1015.74 1015.97 1016.07 1016.21 1015.82 1015.63 1015.63 1015.87 1016.23 1016.59 1017.21 1017.65 1017.87 1017.59 1017.47 1017.54 1015.46 1014.33 1013.90 1013.70 1013.85 1014.22 1014.74 1015.26 1015.55
1016.05 1015.47 1015.58 1016.68 1017.75 1017.13 1017.19 1016.68 1016.88 1017.18 1017.23 1015.89 1015.64 1015.39 1015.43 1015.53 1015.66 1015.42 1015.41 1015.64 1015.77 1015.87 1016.12 1016.12 1015.73 1015.72 1015.78 1015.89 1016.29 1016.88 1017.12 1017.69 1018.21 1018.74 1019.16 1018.76 1018.08 1015.41 1014.72 1014.24 1014.15 1014.34 1014.86 1015.21 1015.57
1016.41 1015.69 1015.20 1015.69 1016.38 1016.97 1016.95 1016.82 1016.97 1017.26 1017.01 1015.59 1015.49 1015.50 1015.45 1015.85 1015.93 1015.80 1015.58 1015.59 1015.72 1015.78 1016.15 1015.95 1015.91 1015.97 1016.05 1016.06 1016.21 1016.93 1017.40 1017.92 1018.59 1019.40 1020.07 1019.82 1020.00 1015.39 1015.06 1014.48 1014.21 1014.40 1014.92 1015.23 1015.64
1016.76 1015.95 1015.16 1015.67 1016.77 1016.60 1016.65 1016.76 1017.17 1017.75 1015.77 1015.29 1015.37 1015.52 1015.82 1015.89 1016.01 1016.04 1015.89 1015.73 1015.77 1015.89 1016.02 1016.12 1016.05 1016.10 1016.09 1016.48 1016.48 1017.11 1017.82 1018.46 1019.28 1020.13 1020.58 1020.00 1019.92 1016.14 1015.02 1014.14 1013.89 1014.14 1014.71 1015.27 1015.78
1016.70 1016.15 1015.81 1015.16 1015.94 1016.51 1016.74 1017.06 1017.81 1016.20 1014.41 1015.07 1015.31 1015.57 1015.68 1015.99 1016.23 1016.13 1016.08 1016.00 1015.82 1016.24 1016.33 1016.45 1016.41 1016.34 1016.29 1016.86 1017.15 1017.43 1018.22 1019.27 1020.17 1020.62 1020.39 1019.76 1019.66 1015.10 1013.78 1013.45 1013.36 1013.88 1014.67 1015.42 1015.79
1016.41 1015.90 1015.26 1015.13 1015.33 1016.08 1016.50 1017.44 1016.47 1014.05 1014.02 1014.19 1014.65 1015.41 1015.79 1015.81 1016.11 1016.17 1016.21 1016.12 1015.71 1015.62 1016.15 1016.42 1016.80 1016.51 1016.41 1016.50 1016.87 1017.64 1018.06 1018.90 1019.77 1020.49 1019.99 1019.38 1017.61 1013.61 1012.91 1012.74 1012.95 1013.59 1014.60 1015.55 1016.12
1016.00 1015.14 1015.25 1015.64 1015.60 1015.50 1016.05 1015.89 1014.53 1013.51 1013.11 1014.04 1014.75 1015.19 1015.70 1015.61 1015.75 1016.09 1016.03 1015.64 1014.65 1014.71 1015.00 1015.56 1016.16 1016.53 1016.70 1016.69 1016.96 1017.72 1018.09 1018.29 1019.29 1020.60 1019.89 1017.55 1015.28 1012.74 1012.63 1012.89 1013.36 1014.00 1015.07 1015.82 1016.18
1016.69 1015.62 1015.01 1015.33 1015.42 1015.37 1015.39 1014.61 1013.97 1012.88 1012.81 1013.33 1013.37 1013.84 1014.91 1015.46 1015.71 1015.85 1015.65 1014.28 1013.86 1013.61 1013.72 1014.28 1015.83 1016.77 1016.98 1017.02 1017.23 1017.36 1017.80 1018.48 1019.19 1019.85 1019.16 1016.65 1015.16 1013.01 1012.42 1012.69 1013.37 1014.21 1014.88 1015.70 1016.24
1016.51 1015.54 1014.77 1015.05 1015.43 1015.26 1014.64 1013.95 1013.40 1012.55 1012.47 1012.67 1012.62 1013.39 1014.01 1014.51 1015.21 1015.36 1014.96 1013.94 1013.32 1013.26 1013.66 1014.11 1014.85 1017.32 1017.43 1017.09 1017.01 1017.81 1017.84 1018.25 1018.49 1018.63 1018.20 1017.07 1013.36 1011.25 1011.33 1011.73 1012.57 1013.31 1014.08 1014.99 1015.90
1016.64 1015.78 1015.01 1015.08 1015.52 1015.21 1014.45 1013.59 1012.38 1012.22 1012.69 1012.23 1012.05 1012.35 1013.08 1013.66 1014.12 1014.84 1014.31 1013.61 1013.03 1013.11 1013.75 1014.10 1015.37 1016.81 1016.80 1016.77 1016.89 1016.97 1017.10 1017.37 1017.80 1018.20 1017.80 1016.90 1012.85 1010.35 1010.68 1011.08 1011.52 1012.29 1013.14 1014.17 1015.17
1017.00 1016.35 1015.39 1015.27 1015.27 1015.24 1014.60 1013.93 1013.02 1012.14 1012.36 1012.45 1012.26 1012.30 1012.37 1012.82 1013.65 1013.69 1013.53 1013.61 1013.38 1013.21 1013.40 1014.00 1015.28 1016.77 1017.31 1017.55 1017.31 1017.18 1016.89 1016.86 1017.06 1017.31 1016.97 1015.87 1011.96 1010.14 1010.38 1010.71 1011.14 1011.74 1012.68 1013.49 1014.63
1017.65 1017.04 1016.26 1015.89 1015.76 1015.25 1014.68 1014.09 1013.24 1012.42 1012.04 1011.92 1011.81 1012.09 1012.35 1012.71 1012.57 1013.13 1013.51 1013.85 1013.81 1013.71 1013.75 1013.93 1014.94 1015.43 1015.99 1015.92 1016.24 1016.94 1016.59 1016.65 1016.55 1016.77 1015.47 1013.38 1011.28 1010.00 1009.98 1010.29 1010.80 1011.35 1011.95 1012.88 1013.89
1017.90 1017.49 1016.95 1016.42 1015.91 1015.26 1014.60 1013.80 1013.00 1012.69 1012.52 1011.86 1011.87 1011.32 1011.82 1012.64 1012.54 1012.69 1013.13 1014.07 1014.20 1014.25 1014.41 1014.63 1015.33 1015.93 1015.93 1016.13 1016.39 1016.38 1016.25 1016.11 1015.75 1014.73 1014.30 1012.14 1010.98 1008.42 1009.16 1009.35 1009.92 1010.48 1011.33 1012.45 1013.26
1018.30 1018.29 1017.66 1017.31 1016.51 1015.57 1014.82 1014.16 1013.31 1012.72 1012.08 1011.84 1011.36 1011.31 1011.29 1011.51 1011.62 1012.18 1012.54 1013.32 1013.58 1014.80 1014.96 1015.09 1015.81 1016.43 1016.82 1016.44 1016.49 1016.34 1015.80 1015.25 1014.70 1013.81 1012.84 1011.91 1008.74 1008.41 1007.98 1008.76 1009.12 1009.58 1010.53 1011.33 1011.97
1018.28 1018.29 1018.24 1017.42 1016.80 1016.29 1014.86 1014.09 1013.55 1012.88 1012.09 1011.33 1011.27 1011.29 1010.98 1010.53 1011.25 1011.81 1011.68 1012.33 1013.12 1013.97 1015.04 1015.66 1016.11 1016.92 1017.08 1016.87 1016.90 1015.75 1013.46 1013.12 1012.47 1011.47 1011.19 1011.27 1006.43 1007.21 1007.37 1008.05 1008.03 1008.42 1009.25 1009.68 1010.18
Wind_Speed
6 7 8 10 10 11 12 13 14 14 13 13 13 14 14 15 14 2 2 3 5 11 9 6 2 5 3 4 4 3 3 3 3 4 3 1 3 3 1 2 2 2 3 2 3
6 6 7 8 9 10 11 12 13 13 13 13 12 12 12 14 2 5 4 6 7 8 5 7 3 6 4 0 2 4 3 5 1 0 2 2 2 4 1 2 1 1 0 2 4
7 7 8 8 9 10 11 12 13 14 14 14 14 14 14 7 3 1 4 7 7 5 2 2 3 1 1 1 0 3 4 3 1 1 1 3 1 2 3 4 5 5 4 2 4
8 7 8 9 10 11 12 13 14 14 15 16 16 16 17 2 2 2 6 8 8 2 3 2 2 2 1 1 1 2 1 2 3 1 1 2 2 3 6 5 7 8 4 2 3
8 7 8 8 10 12 12 13 14 15 16 16 16 15 5 3 0 1 5 7 4 2 2 3 2 1 4 3 0 1 2 3 3 3 2 1 4 6 7 6 7 5 4 5 3
10 9 8 9 9 10 12 14 15 16 17 17 15 13 3 1 1 2 4 4 5 4 3 3 1 1 2 1 2 1 3 3 4 3 3 3 3 2 4 7 7 4 7 6 5
11 10 9 9 9 10 11 13 15 16 17 16 11 3 2 3 2 3 3 1 2 2 2 1 1 2 2 1 1 2 1 3 4 3 2 1 6 10 3 6 7 6 7 7 7
12 11 10 9 10 10 12 14 15 16 15 9 4 1 4 0 1 2 2 2 1 2 1 1 2 4 3 0 4 1 3 3 1 5 1 3 10 3 8 8 9 7 7 7 6
13 12 10 9 9 10 12 15 15 14 9 7 1 1 5 0 2 2 1 1 1 1 2 2 2 3 2 4 4 4 2 3 5 7 2 4 8 4 7 8 9 8 7 7 6
14 13 11 10 8 8 11 16 11 6 1 2 3 2 1 4 2 1 0 0 0 0 1 1 4 3 2 3 4 4 2 4 5 2 3 6 19 10 9 9 11 9 7 7 6
15 14 12 10 7 6 6 4 2 0 1 7 3 1 4 2 1 1 1 1 1 1 3 1 3 5 8 7 3 2 2 3 4 1 4 8 16 20 10 9 11 9 8 7 7
15 15 13 10 6 3 1 2 2 0 5 5 3 0 2 3 3 3 3 3 3 4 3 3 6 4 4 5 4 2 2 5 5 2 3 5 22 16 8 9 10 13 8 8 6
15 14 13 9 6 1 3 4 3 1 1 3 4 4 3 4 3 5 6 4 3 4 6 5 1 4 3 3 3 2 4 3 5 7 3 8 11 5 3 1 4 4 5 5 7
18 7 15 15 2 4 3 4 3 1 4 5 4 2 2 4 3 1 1 3 2 8 5 5 2 4 2 2 4 2 3 3 1 4 3 5 8 7 4 6 2 6 7 7 7
21 21 22 17 5 4 2 4 3 2 3 3 3 2 3 4 4 1 1 2 4 5 6 4 5 3 2 3 5 3 4 3 2 1 3 4 4 11 5 5 6 8 8 7 6
20 22 19 7 1 1 4 6 2 3 10 4 4 5 5 3 2 2 1 2 1 3 2 1 1 3 4 2 3 5 4 5 4 3 3 4 5 9 3 5 3 4 8 8 7
18 18 7 6 5 6 3 5 2 7 2 6 5 6 4 5 4 5 5 6 6 6 5 1 2 1 3 4 3 2 4 3 5 3 5 3 2 14 6 6 5 8 8 8 7
19 16 5 1 10 12 3 5 8 4 6 3 5 6 6 7 5 6 6 5 6 2 4 7 4 8 3 3 5 5 5 6 6 2 4 2 8 9 4 5 4 5 7 7 7
18 2 2 4 10 8 4 4 7 5 6 8 4 5 4 4 5 4 8 5 8 12 7 6 1 2 2 1 2 4 4 2 6 2 3 4 9 8 3 2 3 7 6 8 7
4 3 2 9 10 6 3 8 6 4 5 4 8 5 8 6 7 7 9 6 4 9 3 6 5 1 1 1 2 3 4 4 3 2 4 5 6 8 5 8 7 7 9 8 6
3 3 1 7 4 3 5 8 6 5 5 7 7 6 5 9 8 6 6 4 5 5 6 3 3 1 2 7 9 3 2 1 3 4 4 3 8 7 5 7 12 11 11 9 9
3 2 2 6 4 3 4 6 6 7 1 2 2 3 8 10 8 6 10 4 2 7 9 3 4 4 5 1 1 3 7 6 5 5 2 2 11 5 4 5 8 10 12 9 8
3 3 3 1 4 3 2 3 4 7 8 6 4 4 2 8 5 7 7 2 3 6 9 8 2 3 6 4 3 5 5 4 4 3 7 7 9 1 3 4 5 9 9 9 9
2 3 2 1 1 1 4 5 7 3 4 6 6 4 2 5 3 8 6 2 4 1 1 5 4 7 8 4 5 6 6 7 6 4 4 12 7 7 6 7 6 7 8 9 12
1 4 2 2 5 4 0 2 9 6 3 3 1 12 11 4 3 5 4 2 4 3 2 3 5 2 3 3 2 4 4 9 13 14 9 5 17 20 12 9 11 10 7 9 12
1 1 2 4 5 6 9 3 3 7 8 5 4 12 17 12 9 7 7 4 5 3 4 1 2 3 4 3 7 6 9 13 16 19 18 13 32 12 11 5 5 10 10 13 15
1 1 2 5 3 4 1 4 5 4 5 5 14 7 14 19 11 2 4 8 8 9 6 5 6 4 4 3 4 9 20 21 13 13 17 17 34 3 8 8 13 13 12 16 17
Wind_Direction
329 337 345 348 352 355 356 357 358 355 350 346 345 342 338 333 317 100 53 263 295 317 323 280 5 353 47 31 42 81 67 249 236 180 185 158 156 334 347 109 80 65 98 176 258
308 320 330 335 337 340 345 348 347 347 344 343 340 337 329 329 247 78 217 279 302 336 27 30 3 357 28 34 23 98 141 234 277 88 159 151 166 182 134 18 159 186 125 323 43
285 300 316 324 325 328 333 338 339 341 341 341 341 337 327 317 188 305 302 317 325 1 261 290 320 45 165 111 20 168 205 179 267 139 89 186 166 210 151 238 210 202 261 310 47
280 286 300 310 322 325 328 333 336 338 339 338 339 335 322 247 205 311 321 336 319 292 309 1 31 59 110 206 237 197 164 153 187 285 290 210 290 259 196 231 169 201 211 127 73
257 263 277 291 308 320 324 329 333 333 334 334 334 335 346 37 91 320 349 346 350 23 41 45 109 152 188 185 237 195 196 117 182 193 223 267 255 246 236 197 197 206 148 149 162
248 253 260 273 290 307 318 322 325 326 327 328 330 330 18 30 172 1 356 1 14 30 31 40 138 286 129 154 165 270 175 189 207 236 252 241 257 19 258 183 208 206 187 188 194
236 248 253 262 279 293 305 311 315 318 320 321 326 342 39 226 327 336 336 323 347 29 123 55 273 169 115 126 270 126 328 288 232 207 238 94 268 232 196 180 207 227 202 209 213
232 232 246 258 270 287 297 304 308 309 312 316 330 354 243 70 317 291 342 305 354 11 98 269 302 100 80 171 24 34 58 332 255 157 191 72 272 279 184 177 221 231 222 228 227
231 231 235 247 262 280 295 298 298 299 296 299 328 95 277 337 159 224 91 196 328 338 325 308 53 107 55 93 16 3 242 229 309 202 125 180 270 276 187 202 231 237 229 226 243
222 225 227 239 249 275 295 300 288 305 273 247 276 9 263 211 156 174 213 97 240 55 24 83 56 86 49 100 219 211 241 251 249 227 213 263 263 256 219 214 229 231 234 225 228
220 219 216 228 241 285 347 360 22 19 240 196 218 226 130 107 96 220 175 126 126 65 172 218 103 200 216 195 199 161 223 263 274 291 272 236 271 276 225 224 229 225 229 222 204
222 211 209 206 213 247 103 264 269 188 308 220 251 222 111 179 129 205 144 153 153 194 128 40 231 223 169 167 158 117 95 280 283 223 248 308 288 283 252 232 211 204 211 209 177
3 206 193 184 150 175 209 220 137 141 171 261 194 178 195 145 218 206 153 168 171 179 189 180 278 166 145 148 155 149 165 226 240 324 276 322 293 337 317 331 184 185 178 185 179
358 284 167 129 98 165 229 160 136 121 52 221 211 225 125 156 233 163 132 175 198 201 175 234 211 170 145 176 140 221 171 162 340 34 269 31 282 308 322 318 201 189 181 176 155
350 340 158 152 135 171 137 87 88 63 268 133 168 139 138 165 128 286 321 89 187 182 119 242 168 162 164 197 171 207 141 133 93 39 7 339 67 270 347 312 240 212 208 188 166
345 339 160 102 51 106 141 88 74 66 239 152 125 162 133 173 163 136 129 39 160 137 86 170 272 174 166 72 80 133 93 46 49 67 7 245 126 286 232 220 282 210 210 181 169
337 333 282 159 187 140 177 87 74 208 341 191 174 166 172 163 176 173 168 175 163 125 203 76 224 257 140 100 25 106 85 341 348 12 224 164 66 245 255 242 220 203 196 182 177
330 315 241 262 134 132 137 67 216 212 187 131 127 121 178 157 202 182 145 198 239 144 127 158 271 178 191 199 170 176 165 162 216 221 277 88 238 254 219 295 206 161 167 168 187
326 324 171 169 156 153 154 190 205 211 155 153 96 130 230 207 149 157 192 215 205 182 168 152 171 74 29 60 148 183 193 172 105 30 37 230 280 296 167 97 111 147 167 200 197
302 278 208 161 164 165 187 211 224 210 118 191 179 152 173 197 159 181 187 214 221 179 189 196 102 338 182 126 31 152 163 77 355 138 268 279 272 246 231 220 196 191 205 211 204
253 221 85 158 158 186 212 194 199 214 206 172 193 151 176 174 171 199 200 274 215 157 165 167 111 222 91 205 179 142 207 132 122 158 180 297 263 212 223 197 205 202 202 198 196
329 225 129 156 178 208 193 188 192 161 167 210 119 166 174 169 163 207 205 232 150 151 165 148 98 182 196 8 188 187 188 168 145 215 225 162 271 212 233 262 207 197 195 192 182
327 292 346 133 202 212 276 268 254 150 170 167 171 226 169 176 166 196 188 74 352 166 162 177 239 62 349 354 347 218 202 167 115 83 206 150 258 230 279 281 219 188 192 184 177
331 306 312 45 263 195 181 207 208 211 215 179 160 144 88 209 256 173 162 116 14 56 114 106 162 171 189 160 127 200 194 183 152 162 176 234 297 261 244 230 224 220 193 181 179
234 267 336 214 244 224 162 247 190 193 267 203 205 191 161 218 153 174 124 112 46 13 1 166 186 146 267 188 181 217 185 184 205 214 194 256 231 250 242 235 216 217 191 175 185
295 256 327 298 291 214 205 227 238 207 161 216 212 192 181 189 203 194 124 182 175 107 170 267 160 115 298 233 215 238 224 216 216 233 241 254 272 248 252 247 225 215 186 194 196
1 266 146 290 330 10 337 231 228 250 224 235 209 175 209 208 196 255 158 151 151 151 170 159 138 130 244 41 29 293 223 213 219 222 215 226 243 162 258 240 243 230 195 206 201